contact:dominique.lefevre@mio.osupytheas.fr, maurice.libes@osupytheas.fr, didier.mallarino@osupytheas.fr
Project:EMSO http://www.emso-fr.org/EMSO-France
Depth: 2436.0 m
Title:EMSO Ligure Ouest : Data MII capteur CSTAR
DateTime,Latitude,Longitude,Instrument_Serial,Reference_Counts,Signal_Counts,Corrected_Signal_raw_counts,Calculated_Beam_c_inverse_meters,Internal_thermistor_counts
DateTime,Latitude,Longitude,Instrument_Serial,Reference_Counts,Signal_Counts,Corrected_Signal_raw_counts,Calculated_Beam_c_inverse_meters,Internal_thermistor_counts
2020-06-26T00:00:09,42.805,6.029,CST-1368DR,6149,8617,15141,0.124,551
2020-06-26T00:03:10,42.805,6.029,CST-1368DR,6149,8616,15138,0.124,551
2020-06-26T00:06:12,42.805,6.029,CST-1368DR,6149,8617,15140,0.124,551
2020-06-26T00:09:14,42.805,6.029,CST-1368DR,6149,8617,15141,0.124,551
2020-06-26T00:12:15,42.805,6.029,CST-1368DR,6149,8617,15141,0.124,551
2020-06-26T00:15:17,42.805,6.029,CST-1368DR,6149,8616,15139,0.124,551
2020-06-26T00:18:19,42.805,6.029,CST-1368DR,6149,8617,15141,0.124,551
2020-06-26T00:21:21,42.805,6.029,CST-1368DR,6149,8618,15142,0.123,551
2020-06-26T00:24:22,42.805,6.029,CST-1368DR,6149,8618,15142,0.123,551
2020-06-26T00:27:24,42.805,6.029,CST-1368DR,6149,8617,15140,0.124,551
2020-06-26T00:30:26,42.805,6.029,CST-1368DR,6149,8617,15141,0.124,551
2020-06-26T00:33:27,42.805,6.029,CST-1368DR,6149,8616,15140,0.124,551
2020-06-26T00:36:29,42.805,6.029,CST-1368DR,6149,8617,15141,0.124,551
2020-06-26T00:39:31,42.805,6.029,CST-1368DR,6149,8617,15141,0.124,551
2020-06-26T00:42:32,42.805,6.029,CST-1368DR,6149,8617,15141,0.124,551
2020-06-26T00:45:34,42.805,6.029,CST-1368DR,6149,8617,15140,0.124,551
2020-06-26T00:48:36,42.805,6.029,CST-1368DR,6149,8617,15141,0.124,550
2020-06-26T00:51:37,42.805,6.029,CST-1368DR,6149,8617,15141,0.124,551
2020-06-26T00:54:39,42.805,6.029,CST-1368DR,6149,8617,15140,0.124,551
2020-06-26T00:57:41,42.805,6.029,CST-1368DR,6149,8617,15141,0.124,551
2020-06-26T01:00:42,42.805,6.029,CST-1368DR,6149,8616,15140,0.124,551
2020-06-26T01:03:44,42.805,6.029,CST-1368DR,6149,8617,15140,0.124,551
2020-06-26T01:06:46,42.805,6.029,CST-1368DR,6148,8617,15144,0.123,551
2020-06-26T01:09:48,42.805,6.029,CST-1368DR,6149,8617,15140,0.124,551
2020-06-26T01:12:50,42.805,6.029,CST-1368DR,6149,8617,15141,0.124,551
2020-06-26T01:15:51,42.805,6.029,CST-1368DR,6148,8617,15143,0.123,551
2020-06-26T01:18:53,42.805,6.029,CST-1368DR,6148,8617,15142,0.123,551
2020-06-26T01:21:55,42.805,6.029,CST-1368DR,6148,8616,15141,0.124,551
2020-06-26T01:24:57,42.805,6.029,CST-1368DR,6148,8617,15144,0.123,551
2020-06-26T01:27:58,42.805,6.029,CST-1368DR,6149,8617,15141,0.124,551
2020-06-26T01:31:00,42.805,6.029,CST-1368DR,6148,8617,15144,0.123,551
2020-06-26T01:34:02,42.805,6.029,CST-1368DR,6148,8618,15144,0.123,551
2020-06-26T01:37:04,42.805,6.029,CST-1368DR,6148,8618,15144,0.123,551
2020-06-26T01:40:05,42.805,6.029,CST-1368DR,6149,8617,15140,0.124,551
2020-06-26T01:43:07,42.805,6.029,CST-1368DR,6148,8618,15144,0.123,551
2020-06-26T01:46:09,42.805,6.029,CST-1368DR,6149,8617,15140,0.124,551
2020-06-26T01:49:10,42.805,6.029,CST-1368DR,6148,8617,15143,0.123,551
2020-06-26T01:52:12,42.805,6.029,CST-1368DR,6148,8617,15144,0.123,551
2020-06-26T01:55:14,42.805,6.029,CST-1368DR,6148,8617,15143,0.123,551
2020-06-26T01:58:15,42.805,6.029,CST-1368DR,6148,8617,15144,0.123,551
2020-06-26T02:01:17,42.805,6.029,CST-1368DR,6148,8617,15144,0.123,551
2020-06-26T02:04:19,42.805,6.029,CST-1368DR,6149,8617,15141,0.124,551
2020-06-26T02:07:21,42.805,6.029,CST-1368DR,6148,8617,15143,0.123,551
2020-06-26T02:10:22,42.805,6.029,CST-1368DR,6148,8617,15143,0.123,551
2020-06-26T02:13:24,42.805,6.029,CST-1368DR,6148,8617,15143,0.123,551
2020-06-26T02:16:26,42.805,6.029,CST-1368DR,6148,8617,15144,0.123,551
2020-06-26T02:19:27,42.805,6.029,CST-1368DR,6148,8617,15143,0.123,551
2020-06-26T02:22:29,42.805,6.029,CST-1368DR,6148,8617,15143,0.123,551
2020-06-26T02:25:31,42.805,6.029,CST-1368DR,6148,8617,15144,0.123,551
2020-06-26T02:28:33,42.805,6.029,CST-1368DR,6148,8618,15144,0.123,551
2020-06-26T02:31:34,42.805,6.029,CST-1368DR,6148,8617,15143,0.123,551
2020-06-26T02:34:36,42.805,6.029,CST-1368DR,6148,8617,15144,0.123,551
2020-06-26T02:37:38,42.805,6.029,CST-1368DR,6148,8618,15144,0.123,551
2020-06-26T02:40:39,42.805,6.029,CST-1368DR,6148,8618,15144,0.123,551
2020-06-26T02:43:41,42.805,6.029,CST-1368DR,6148,8617,15143,0.123,551
2020-06-26T02:46:43,42.805,6.029,CST-1368DR,6148,8616,15141,0.124,551
2020-06-26T02:49:44,42.805,6.029,CST-1368DR,6148,8617,15143,0.123,551
2020-06-26T02:52:46,42.805,6.029,CST-1368DR,6148,8616,15141,0.124,551
2020-06-26T02:55:48,42.805,6.029,CST-1368DR,6148,8616,15141,0.124,551
2020-06-26T02:58:50,42.805,6.029,CST-1368DR,6148,8615,15139,0.124,551
2020-06-26T03:01:51,42.805,6.029,CST-1368DR,6148,8617,15143,0.123,551
2020-06-26T03:04:53,42.805,6.029,CST-1368DR,6148,8617,15143,0.123,551
2020-06-26T03:07:55,42.805,6.029,CST-1368DR,6148,8617,15143,0.123,551
2020-06-26T03:10:56,42.805,6.029,CST-1368DR,6148,8616,15141,0.124,551
2020-06-26T03:13:58,42.805,6.029,CST-1368DR,6148,8614,15138,0.124,551
2020-06-26T03:17:00,42.805,6.029,CST-1368DR,6148,8617,15143,0.123,551
2020-06-26T03:20:01,42.805,6.029,CST-1368DR,6148,8616,15141,0.124,551
2020-06-26T03:23:03,42.805,6.029,CST-1368DR,6148,8616,15142,0.123,551
2020-06-26T03:26:05,42.805,6.029,CST-1368DR,6148,8616,15142,0.123,551
2020-06-26T03:29:06,42.805,6.029,CST-1368DR,6148,8616,15141,0.124,551
2020-06-26T03:32:08,42.805,6.029,CST-1368DR,6148,8617,15142,0.123,551
2020-06-26T03:35:10,42.805,6.029,CST-1368DR,6148,8616,15141,0.124,551
2020-06-26T03:38:12,42.805,6.029,CST-1368DR,6148,8615,15139,0.124,551
2020-06-26T03:41:13,42.805,6.029,CST-1368DR,6148,8615,15139,0.124,551
2020-06-26T03:44:15,42.805,6.029,CST-1368DR,6148,8617,15143,0.123,551
2020-06-26T03:47:17,42.805,6.029,CST-1368DR,6148,8616,15141,0.124,551
2020-06-26T03:50:18,42.805,6.029,CST-1368DR,6148,8615,15140,0.124,551
2020-06-26T03:53:20,42.805,6.029,CST-1368DR,6148,8616,15141,0.124,551
2020-06-26T03:56:22,42.805,6.029,CST-1368DR,6148,8616,15141,0.124,551
2020-06-26T03:59:23,42.805,6.029,CST-1368DR,6148,8615,15140,0.124,550
2020-06-26T04:02:25,42.805,6.029,CST-1368DR,6148,8615,15139,0.124,551
2020-06-26T04:05:27,42.805,6.029,CST-1368DR,6148,8616,15141,0.124,551
2020-06-26T04:08:29,42.805,6.029,CST-1368DR,6148,8615,15140,0.124,551
2020-06-26T04:11:30,42.805,6.029,CST-1368DR,6148,8616,15141,0.124,551
2020-06-26T04:14:32,42.805,6.029,CST-1368DR,6148,8616,15142,0.123,551
2020-06-26T04:17:34,42.805,6.029,CST-1368DR,6148,8616,15141,0.124,551
2020-06-26T04:20:35,42.805,6.029,CST-1368DR,6148,8616,15141,0.124,550
2020-06-26T04:23:37,42.805,6.029,CST-1368DR,6148,8616,15141,0.124,551
2020-06-26T04:26:39,42.805,6.029,CST-1368DR,6148,8616,15142,0.123,551
2020-06-26T04:29:40,42.805,6.029,CST-1368DR,6148,8615,15139,0.124,551
2020-06-26T04:32:42,42.805,6.029,CST-1368DR,6148,8615,15140,0.124,551
2020-06-26T04:35:44,42.805,6.029,CST-1368DR,6148,8615,15140,0.124,551
2020-06-26T04:38:45,42.805,6.029,CST-1368DR,6148,8615,15140,0.124,551
2020-06-26T04:41:47,42.805,6.029,CST-1368DR,6148,8615,15140,0.124,551
2020-06-26T04:44:49,42.805,6.029,CST-1368DR,6148,8616,15141,0.124,551
2020-06-26T04:47:50,42.805,6.029,CST-1368DR,6148,8615,15140,0.124,551
2020-06-26T04:50:52,42.805,6.029,CST-1368DR,6148,8615,15140,0.124,551
2020-06-26T04:53:54,42.805,6.029,CST-1368DR,6148,8615,15139,0.124,551
2020-06-26T04:56:55,42.805,6.029,CST-1368DR,6148,8615,15140,0.124,551
2020-06-26T04:59:57,42.805,6.029,CST-1368DR,6148,8615,15139,0.124,551
2020-06-26T05:02:59,42.805,6.029,CST-1368DR,6148,8615,15139,0.124,551
2020-06-26T05:06:01,42.805,6.029,CST-1368DR,6148,8615,15140,0.124,551
2020-06-26T05:09:02,42.805,6.029,CST-1368DR,6148,8615,15139,0.124,551
2020-06-26T05:12:04,42.805,6.029,CST-1368DR,6148,8614,15137,0.125,551
2020-06-26T05:15:06,42.805,6.029,CST-1368DR,6148,8614,15138,0.124,551
2020-06-26T05:18:07,42.805,6.029,CST-1368DR,6148,8615,15140,0.124,551
2020-06-26T05:21:09,42.805,6.029,CST-1368DR,6148,8615,15140,0.124,551
2020-06-26T05:24:11,42.805,6.029,CST-1368DR,6148,8615,15140,0.124,551
2020-06-26T05:27:12,42.805,6.029,CST-1368DR,6148,8615,15140,0.124,551
2020-06-26T05:30:14,42.805,6.029,CST-1368DR,6148,8615,15139,0.124,551
2020-06-26T05:33:16,42.805,6.029,CST-1368DR,6148,8615,15139,0.124,551
2020-06-26T05:36:18,42.805,6.029,CST-1368DR,6148,8615,15139,0.124,551
2020-06-26T05:39:19,42.805,6.029,CST-1368DR,6148,8616,15141,0.124,551
2020-06-26T05:42:21,42.805,6.029,CST-1368DR,6148,8615,15140,0.124,551
2020-06-26T05:45:23,42.805,6.029,CST-1368DR,6148,8615,15140,0.124,551
2020-06-26T05:48:24,42.805,6.029,CST-1368DR,6148,8615,15139,0.124,551
2020-06-26T05:51:26,42.805,6.029,CST-1368DR,6148,8614,15138,0.124,551
2020-06-26T05:54:28,42.805,6.029,CST-1368DR,6148,8615,15139,0.124,550
2020-06-26T05:57:30,42.805,6.029,CST-1368DR,6148,8615,15139,0.124,551
2020-06-26T06:00:31,42.805,6.029,CST-1368DR,6148,8615,15139,0.124,551
2020-06-26T06:03:33,42.805,6.029,CST-1368DR,6148,8615,15139,0.124,551
2020-06-26T06:06:35,42.805,6.029,CST-1368DR,6148,8615,15140,0.124,551
2020-06-26T06:09:36,42.805,6.029,CST-1368DR,6148,8615,15140,0.124,551
2020-06-26T06:12:38,42.805,6.029,CST-1368DR,6148,8614,15138,0.124,551
2020-06-26T06:15:40,42.805,6.029,CST-1368DR,6147,8614,15140,0.124,551
2020-06-26T06:18:41,42.805,6.029,CST-1368DR,6148,8615,15140,0.124,551
2020-06-26T06:21:43,42.805,6.029,CST-1368DR,6148,8615,15139,0.124,551
2020-06-26T06:24:45,42.805,6.029,CST-1368DR,6147,8614,15141,0.124,551
2020-06-26T06:27:46,42.805,6.029,CST-1368DR,6147,8614,15140,0.124,551
2020-06-26T06:30:48,42.805,6.029,CST-1368DR,6147,8614,15140,0.124,551
2020-06-26T06:33:50,42.805,6.029,CST-1368DR,6147,8614,15141,0.124,551
2020-06-26T06:36:52,42.805,6.029,CST-1368DR,6147,8613,15139,0.124,551
2020-06-26T06:39:53,42.805,6.029,CST-1368DR,6147,8614,15141,0.124,551
2020-06-26T06:42:55,42.805,6.029,CST-1368DR,6147,8615,15141,0.124,551
2020-06-26T06:45:57,42.805,6.029,CST-1368DR,6147,8615,15141,0.124,551
2020-06-26T06:48:58,42.805,6.029,CST-1368DR,6147,8615,15141,0.124,551
2020-06-26T06:52:00,42.805,6.029,CST-1368DR,6147,8614,15141,0.124,551
2020-06-26T06:55:02,42.805,6.029,CST-1368DR,6147,8614,15141,0.124,551
2020-06-26T06:58:03,42.805,6.029,CST-1368DR,6147,8614,15140,0.124,551
2020-06-26T07:01:05,42.805,6.029,CST-1368DR,6147,8614,15140,0.124,551
2020-06-26T07:04:07,42.805,6.029,CST-1368DR,6147,8614,15140,0.124,551
2020-06-26T07:07:08,42.805,6.029,CST-1368DR,6147,8614,15140,0.124,551
2020-06-26T07:10:10,42.805,6.029,CST-1368DR,6147,8614,15140,0.124,551
2020-06-26T07:13:12,42.805,6.029,CST-1368DR,6147,8615,15141,0.124,551
2020-06-26T07:16:14,42.805,6.029,CST-1368DR,6147,8615,15141,0.124,551
2020-06-26T07:19:15,42.805,6.029,CST-1368DR,6148,8615,15139,0.124,551
2020-06-26T07:22:17,42.805,6.029,CST-1368DR,6147,8614,15141,0.124,551
2020-06-26T07:25:19,42.805,6.029,CST-1368DR,6147,8614,15140,0.124,551
2020-06-26T07:28:20,42.805,6.029,CST-1368DR,6147,8610,15134,0.125,551
2020-06-26T07:31:22,42.805,6.029,CST-1368DR,6147,8613,15138,0.124,551
2020-06-26T07:34:24,42.805,6.029,CST-1368DR,6147,8614,15141,0.124,551
2020-06-26T07:37:25,42.805,6.029,CST-1368DR,6147,8614,15140,0.124,551
2020-06-26T07:40:27,42.805,6.029,CST-1368DR,6147,8613,15139,0.124,551
2020-06-26T07:43:29,42.805,6.029,CST-1368DR,6147,8614,15140,0.124,551
2020-06-26T07:46:31,42.805,6.029,CST-1368DR,6147,8614,15140,0.124,551
2020-06-26T07:49:32,42.805,6.029,CST-1368DR,6147,8614,15139,0.124,551
2020-06-26T07:52:34,42.805,6.029,CST-1368DR,6147,8614,15139,0.124,551
2020-06-26T07:55:36,42.805,6.029,CST-1368DR,6147,8614,15140,0.124,551
2020-06-26T07:58:37,42.805,6.029,CST-1368DR,6147,8613,15139,0.124,551
2020-06-26T08:01:39,42.805,6.029,CST-1368DR,6147,8613,15139,0.124,551
2020-06-26T08:04:41,42.805,6.029,CST-1368DR,6147,8614,15140,0.124,551
2020-06-26T08:07:42,42.805,6.029,CST-1368DR,6147,8614,15140,0.124,551
2020-06-26T08:10:44,42.805,6.029,CST-1368DR,6147,8614,15140,0.124,551
2020-06-26T08:13:46,42.805,6.029,CST-1368DR,6147,8614,15140,0.124,551
2020-06-26T08:16:47,42.805,6.029,CST-1368DR,6147,8614,15140,0.124,551
2020-06-26T08:19:49,42.805,6.029,CST-1368DR,6147,8613,15138,0.124,551
2020-06-26T08:22:51,42.805,6.029,CST-1368DR,6147,8613,15139,0.124,551
2020-06-26T08:25:52,42.805,6.029,CST-1368DR,6147,8613,15138,0.124,551
2020-06-26T08:28:54,42.805,6.029,CST-1368DR,6147,8614,15140,0.124,551
2020-06-26T08:31:56,42.805,6.029,CST-1368DR,6147,8614,15140,0.124,551
2020-06-26T08:34:58,42.805,6.029,CST-1368DR,6147,8613,15139,0.124,551
2020-06-26T08:37:59,42.805,6.029,CST-1368DR,6147,8614,15140,0.124,551
2020-06-26T08:41:01,42.805,6.029,CST-1368DR,6147,8615,15141,0.124,551
2020-06-26T08:44:03,42.805,6.029,CST-1368DR,6147,8614,15140,0.124,551
2020-06-26T08:47:04,42.805,6.029,CST-1368DR,6147,8614,15139,0.124,551
2020-06-26T08:50:06,42.805,6.029,CST-1368DR,6147,8614,15140,0.124,551
2020-06-26T08:53:08,42.805,6.029,CST-1368DR,6147,8614,15140,0.124,551
2020-06-26T08:56:10,42.805,6.029,CST-1368DR,6147,8613,15139,0.124,551
2020-06-26T08:59:11,42.805,6.029,CST-1368DR,6147,8614,15139,0.124,551
2020-06-26T09:02:13,42.805,6.029,CST-1368DR,6147,8613,15139,0.124,551
2020-06-26T09:05:15,42.805,6.029,CST-1368DR,6147,8613,15139,0.124,551
2020-06-26T09:08:16,42.805,6.029,CST-1368DR,6147,8612,15136,0.125,551
2020-06-26T09:11:18,42.805,6.029,CST-1368DR,6147,8613,15139,0.124,551
2020-06-26T09:14:20,42.805,6.029,CST-1368DR,6147,8614,15139,0.124,551
2020-06-26T09:17:21,42.805,6.029,CST-1368DR,6147,8613,15138,0.124,551
2020-06-26T09:20:23,42.805,6.029,CST-1368DR,6147,8614,15139,0.124,551
2020-06-26T09:23:25,42.805,6.029,CST-1368DR,6147,8613,15139,0.124,551
2020-06-26T09:26:26,42.805,6.029,CST-1368DR,6147,8614,15141,0.124,551
2020-06-26T09:29:28,42.805,6.029,CST-1368DR,6147,8614,15140,0.124,551
2020-06-26T09:32:30,42.805,6.029,CST-1368DR,6147,8612,15136,0.125,551
2020-06-26T09:35:31,42.805,6.029,CST-1368DR,6147,8614,15141,0.124,551
2020-06-26T09:38:33,42.805,6.029,CST-1368DR,6147,8613,15139,0.124,551
2020-06-26T09:41:35,42.805,6.029,CST-1368DR,6147,8614,15141,0.124,551
2020-06-26T09:44:37,42.805,6.029,CST-1368DR,6147,8614,15139,0.124,551
2020-06-26T09:47:38,42.805,6.029,CST-1368DR,6147,8613,15139,0.124,551
2020-06-26T09:50:40,42.805,6.029,CST-1368DR,6147,8614,15139,0.124,551
2020-06-26T09:53:42,42.805,6.029,CST-1368DR,6147,8614,15140,0.124,551
2020-06-26T09:56:43,42.805,6.029,CST-1368DR,6147,8614,15139,0.124,551
2020-06-26T09:59:45,42.805,6.029,CST-1368DR,6147,8614,15139,0.124,551
2020-06-26T10:02:47,42.805,6.029,CST-1368DR,6147,8613,15139,0.124,551
2020-06-26T10:05:48,42.805,6.029,CST-1368DR,6147,8610,15134,0.125,551
2020-06-26T10:08:50,42.805,6.029,CST-1368DR,6147,8614,15139,0.124,551
2020-06-26T10:11:52,42.805,6.029,CST-1368DR,6147,8614,15139,0.124,550
2020-06-26T10:14:53,42.805,6.029,CST-1368DR,6147,8613,15138,0.124,551
2020-06-26T10:17:55,42.805,6.029,CST-1368DR,6147,8615,15141,0.124,551
2020-06-26T10:20:57,42.805,6.029,CST-1368DR,6147,8614,15141,0.124,551
2020-06-26T10:23:58,42.805,6.029,CST-1368DR,6147,8614,15140,0.124,550
2020-06-26T10:27:00,42.805,6.029,CST-1368DR,6147,8613,15139,0.124,551
2020-06-26T10:30:02,42.805,6.029,CST-1368DR,6147,8614,15140,0.124,551
2020-06-26T10:33:04,42.805,6.029,CST-1368DR,6147,8614,15141,0.124,551
2020-06-26T10:36:05,42.805,6.029,CST-1368DR,6147,8614,15140,0.124,551
2020-06-26T10:39:07,42.805,6.029,CST-1368DR,6147,8613,15138,0.124,551
2020-06-26T10:42:09,42.805,6.029,CST-1368DR,6147,8613,15139,0.124,551
2020-06-26T10:45:10,42.805,6.029,CST-1368DR,6147,8614,15139,0.124,551
2020-06-26T10:48:12,42.805,6.029,CST-1368DR,6147,8614,15140,0.124,551
2020-06-26T10:51:14,42.805,6.029,CST-1368DR,6147,8614,15140,0.124,551
2020-06-26T10:54:15,42.805,6.029,CST-1368DR,6147,8614,15140,0.124,551
2020-06-26T10:57:17,42.805,6.029,CST-1368DR,6147,8613,15139,0.124,551
2020-06-26T11:00:19,42.805,6.029,CST-1368DR,6147,8613,15138,0.124,551
2020-06-26T11:03:21,42.805,6.029,CST-1368DR,6147,8614,15139,0.124,551
2020-06-26T11:06:22,42.805,6.029,CST-1368DR,6147,8613,15139,0.124,551
2020-06-26T11:09:24,42.805,6.029,CST-1368DR,6147,8611,15134,0.125,551
2020-06-26T11:12:26,42.805,6.029,CST-1368DR,6147,8613,15139,0.124,551
2020-06-26T11:15:27,42.805,6.029,CST-1368DR,6147,8614,15139,0.124,551
2020-06-26T11:18:29,42.805,6.029,CST-1368DR,6147,8614,15140,0.124,551
2020-06-26T11:21:31,42.805,6.029,CST-1368DR,6147,8613,15139,0.124,551
2020-06-26T11:24:32,42.805,6.029,CST-1368DR,6147,8614,15141,0.124,551
2020-06-26T11:27:34,42.805,6.029,CST-1368DR,6147,8614,15140,0.124,550
2020-06-26T11:30:36,42.805,6.029,CST-1368DR,6147,8614,15140,0.124,551
2020-06-26T11:33:38,42.805,6.029,CST-1368DR,6147,8614,15140,0.124,551
2020-06-26T11:36:39,42.805,6.029,CST-1368DR,6147,8614,15140,0.124,551
2020-06-26T11:39:41,42.805,6.029,CST-1368DR,6147,8614,15140,0.124,551
2020-06-26T11:42:43,42.805,6.029,CST-1368DR,6147,8614,15140,0.124,551
2020-06-26T11:45:45,42.805,6.029,CST-1368DR,6147,8614,15140,0.124,551
2020-06-26T11:48:46,42.805,6.029,CST-1368DR,6147,8614,15140,0.124,551
2020-06-26T11:51:48,42.805,6.029,CST-1368DR,6147,8614,15140,0.124,551
2020-06-26T11:54:50,42.805,6.029,CST-1368DR,6147,8614,15140,0.124,551
2020-06-26T11:57:51,42.805,6.029,CST-1368DR,6147,8613,15139,0.124,551
2020-06-26T12:00:53,42.805,6.029,CST-1368DR,6147,8614,15140,0.124,551
2020-06-26T12:03:55,42.805,6.029,CST-1368DR,6147,8612,15136,0.125,551
2020-06-26T12:06:56,42.805,6.029,CST-1368DR,6147,8613,15139,0.124,551
2020-06-26T12:09:58,42.805,6.029,CST-1368DR,6147,8614,15139,0.124,551
2020-06-26T12:13:00,42.805,6.029,CST-1368DR,6147,8614,15140,0.124,551
2020-06-26T12:16:02,42.805,6.029,CST-1368DR,6147,8614,15139,0.124,551
2020-06-26T12:19:03,42.805,6.029,CST-1368DR,6146,8613,15141,0.124,551
2020-06-26T12:22:05,42.805,6.029,CST-1368DR,6146,8614,15142,0.123,551
2020-06-26T12:25:07,42.805,6.029,CST-1368DR,6147,8614,15139,0.124,551
2020-06-26T12:28:08,42.805,6.029,CST-1368DR,6146,8614,15142,0.123,551
2020-06-26T12:31:10,42.805,6.029,CST-1368DR,6146,8614,15143,0.123,551
2020-06-26T12:34:12,42.805,6.029,CST-1368DR,6146,8613,15141,0.124,551
2020-06-26T12:37:13,42.805,6.029,CST-1368DR,6146,8614,15142,0.123,551
2020-06-26T12:40:15,42.805,6.029,CST-1368DR,6146,8614,15142,0.123,551
2020-06-26T12:43:17,42.805,6.029,CST-1368DR,6146,8614,15142,0.123,550
2020-06-26T12:46:18,42.805,6.029,CST-1368DR,6146,8614,15142,0.123,551
2020-06-26T12:49:20,42.805,6.029,CST-1368DR,6146,8613,15141,0.124,551
2020-06-26T12:52:22,42.805,6.029,CST-1368DR,6146,8613,15141,0.124,551
2020-06-26T12:55:23,42.805,6.029,CST-1368DR,6146,8614,15142,0.123,551
2020-06-26T12:58:25,42.805,6.029,CST-1368DR,6146,8612,15139,0.124,551
2020-06-26T13:01:27,42.805,6.029,CST-1368DR,6147,8613,15139,0.124,551
2020-06-26T13:04:29,42.805,6.029,CST-1368DR,6147,8614,15139,0.124,551
2020-06-26T13:07:30,42.805,6.029,CST-1368DR,6146,8614,15142,0.123,551
2020-06-26T13:10:32,42.805,6.029,CST-1368DR,6146,8614,15142,0.123,551
2020-06-26T13:13:34,42.805,6.029,CST-1368DR,6146,8613,15141,0.124,551
2020-06-26T13:16:35,42.805,6.029,CST-1368DR,6146,8614,15142,0.123,551
2020-06-26T13:19:37,42.805,6.029,CST-1368DR,6146,8614,15142,0.123,551
2020-06-26T13:22:39,42.805,6.029,CST-1368DR,6146,8614,15142,0.123,551
2020-06-26T13:25:41,42.805,6.029,CST-1368DR,6146,8613,15141,0.124,551
2020-06-26T13:28:42,42.805,6.029,CST-1368DR,6146,8608,15132,0.126,551
2020-06-26T13:31:44,42.805,6.029,CST-1368DR,6146,8613,15141,0.124,551
2020-06-26T13:34:46,42.805,6.029,CST-1368DR,6146,8614,15142,0.123,551
2020-06-26T13:37:47,42.805,6.029,CST-1368DR,6146,8613,15140,0.124,551
2020-06-26T13:40:49,42.805,6.029,CST-1368DR,6147,8613,15138,0.124,551
2020-06-26T13:43:51,42.805,6.029,CST-1368DR,6146,8614,15142,0.123,551
2020-06-26T13:46:52,42.805,6.029,CST-1368DR,6146,8614,15142,0.123,551
2020-06-26T13:49:54,42.805,6.029,CST-1368DR,6146,8613,15141,0.124,551
2020-06-26T13:52:56,42.805,6.029,CST-1368DR,6146,8613,15141,0.124,551
2020-06-26T13:55:57,42.805,6.029,CST-1368DR,6146,8614,15142,0.123,551
2020-06-26T13:58:59,42.805,6.029,CST-1368DR,6146,8613,15141,0.124,551
2020-06-26T14:02:01,42.805,6.029,CST-1368DR,6146,8613,15140,0.124,551
2020-06-26T14:05:03,42.805,6.029,CST-1368DR,6146,8613,15141,0.124,551
2020-06-26T14:08:04,42.805,6.029,CST-1368DR,6146,8613,15141,0.124,551
2020-06-26T14:11:06,42.805,6.029,CST-1368DR,6146,8613,15140,0.124,551
2020-06-26T14:14:08,42.805,6.029,CST-1368DR,6146,8613,15140,0.124,551
2020-06-26T14:17:09,42.805,6.029,CST-1368DR,6146,8614,15142,0.123,551
2020-06-26T14:20:11,42.805,6.029,CST-1368DR,6146,8613,15141,0.124,551
2020-06-26T14:23:13,42.805,6.029,CST-1368DR,6146,8613,15141,0.124,551
2020-06-26T14:26:15,42.805,6.029,CST-1368DR,6146,8612,15139,0.124,551
2020-06-26T14:29:16,42.805,6.029,CST-1368DR,6146,8614,15143,0.123,551
2020-06-26T14:32:18,42.805,6.029,CST-1368DR,6146,8613,15140,0.124,551
2020-06-26T14:35:20,42.805,6.029,CST-1368DR,6146,8610,15136,0.125,551
2020-06-26T14:38:21,42.805,6.029,CST-1368DR,6146,8613,15141,0.124,551
2020-06-26T14:41:23,42.805,6.029,CST-1368DR,6146,8614,15142,0.123,550
2020-06-26T14:44:25,42.805,6.029,CST-1368DR,6146,8614,15142,0.123,551
2020-06-26T14:47:26,42.805,6.029,CST-1368DR,6146,8613,15140,0.124,551
2020-06-26T14:50:28,42.805,6.029,CST-1368DR,6146,8613,15141,0.124,551
2020-06-26T14:53:30,42.805,6.029,CST-1368DR,6146,8613,15141,0.124,551
2020-06-26T14:56:32,42.805,6.029,CST-1368DR,6146,8613,15141,0.124,550
2020-06-26T14:59:33,42.805,6.029,CST-1368DR,6146,8613,15140,0.124,551
2020-06-26T15:02:35,42.805,6.029,CST-1368DR,6146,8613,15141,0.124,551
2020-06-26T15:05:37,42.805,6.029,CST-1368DR,6146,8613,15140,0.124,551
2020-06-26T15:08:38,42.805,6.029,CST-1368DR,6146,8613,15141,0.124,550
2020-06-26T15:11:40,42.805,6.029,CST-1368DR,6146,8612,15138,0.124,551
2020-06-26T15:14:42,42.805,6.029,CST-1368DR,6146,8613,15140,0.124,551
2020-06-26T15:17:44,42.805,6.029,CST-1368DR,6146,8613,15140,0.124,551
2020-06-26T15:20:45,42.805,6.029,CST-1368DR,6146,8612,15139,0.124,551
2020-06-26T15:23:47,42.805,6.029,CST-1368DR,6146,8613,15141,0.124,551
2020-06-26T15:26:49,42.805,6.029,CST-1368DR,6146,8613,15141,0.124,551
2020-06-26T15:29:50,42.805,6.029,CST-1368DR,6146,8613,15140,0.124,551
2020-06-26T15:32:52,42.805,6.029,CST-1368DR,6146,8613,15141,0.124,551
2020-06-26T15:35:54,42.805,6.029,CST-1368DR,6146,8613,15141,0.124,551
2020-06-26T15:38:55,42.805,6.029,CST-1368DR,6146,8613,15141,0.124,551
2020-06-26T15:41:57,42.805,6.029,CST-1368DR,6146,8613,15141,0.124,551
2020-06-26T15:44:59,42.805,6.029,CST-1368DR,6146,8613,15140,0.124,551
2020-06-26T15:48:00,42.805,6.029,CST-1368DR,6146,8614,15142,0.123,551
2020-06-26T15:51:02,42.805,6.029,CST-1368DR,6146,8613,15140,0.124,551
2020-06-26T15:54:04,42.805,6.029,CST-1368DR,6146,8613,15141,0.124,551
2020-06-26T15:57:06,42.805,6.029,CST-1368DR,6146,8613,15141,0.124,551
2020-06-26T16:00:07,42.805,6.029,CST-1368DR,6146,8613,15141,0.124,551
2020-06-26T16:03:09,42.805,6.029,CST-1368DR,6146,8613,15140,0.124,551
2020-06-26T16:06:11,42.805,6.029,CST-1368DR,6146,8613,15141,0.124,551
2020-06-26T16:09:13,42.805,6.029,CST-1368DR,6146,8612,15139,0.124,551
2020-06-26T16:12:14,42.805,6.029,CST-1368DR,6146,8613,15140,0.124,551
2020-06-26T16:15:16,42.805,6.029,CST-1368DR,6146,8612,15139,0.124,551
2020-06-26T16:18:18,42.805,6.029,CST-1368DR,6146,8612,15139,0.124,551
2020-06-26T16:21:19,42.805,6.029,CST-1368DR,6146,8612,15139,0.124,551
2020-06-26T16:24:21,42.805,6.029,CST-1368DR,6146,8613,15140,0.124,551
2020-06-26T16:27:23,42.805,6.029,CST-1368DR,6146,8612,15138,0.124,551
2020-06-26T16:30:24,42.805,6.029,CST-1368DR,6146,8613,15141,0.124,551
2020-06-26T16:33:26,42.805,6.029,CST-1368DR,6146,8613,15140,0.124,551
2020-06-26T16:36:28,42.805,6.029,CST-1368DR,6146,8612,15139,0.124,551
2020-06-26T16:39:30,42.805,6.029,CST-1368DR,6146,8613,15140,0.124,551
2020-06-26T16:42:31,42.805,6.029,CST-1368DR,6146,8613,15141,0.124,551
2020-06-26T16:45:33,42.805,6.029,CST-1368DR,6146,8613,15140,0.124,551
2020-06-26T16:48:35,42.805,6.029,CST-1368DR,6146,8613,15140,0.124,551
2020-06-26T16:51:36,42.805,6.029,CST-1368DR,6146,8613,15141,0.124,551